ASTROSAT

Last updated on Fri Sep 11 2026 00:03:32 GMT+0000 (Coordinated Universal Time)

1 40930U 15052A 26253.52497142 .00001338 00000+0 80819-4 0 9995 2 40930 5.9966 261.0326 0007858 177.7336 182.2827 14.82635720592515
UTC large
Height (km)
Speed (km/s)
/
Latitude / Longitude
Inclination (degrees)
Orbital Period (minutes)
Azimuth
Elevation
Range (km)
Doppler Factor

Next 0 passes for location: London (51.5072 / 0.1276)

No passes found over London.
ASTROSAT